Simultaneous Nadir Overpasses (SNOs) Predictions

Prediction of SNOs between METOP-B and TERRA Satellite Orbit:

Table of predicted SNOs for the next 14.0 days since TLE Epoch: 7/6/2019
Index Date (METOP-B) Time (METOP-B) Lat,Lon (METOP-B) SZA (METOP-B ) Date (TERRA) Time (TERRA) Lat,Lon (TERRA) SZA (TERRA ) Distance(km) Time Diff (sec)
1 07/06/2019 08:07:16 81.31, 105.46 61.41 07/06/2019 08:07:18 81.30, 105.40 61.40 1.20 2
2 07/06/2019 08:57:55 -81.32, -86.50 118.51 07/06/2019 08:56:44 -81.32, -86.65 118.56 2.40 71
3 07/09/2019 02:50:58 -81.31, 4.42 118.33 07/09/2019 02:52:06 -81.31, 4.27 118.31 2.56 68
4 07/09/2019 03:41:38 81.31, 172.06 61.72 07/09/2019 03:41:32 81.31, 171.97 61.70 1.41 6
5 07/11/2019 22:25:20 -81.31, 71.01 117.96 07/11/2019 22:26:20 -81.31, 70.82 117.96 3.21 60
6 07/11/2019 23:16:00 81.31,-121.36 62.08 07/11/2019 23:15:46 81.31,-121.51 62.06 2.40 14
7 07/14/2019 17:59:42 -81.31, 137.19 117.60 07/14/2019 18:00:33 -81.32, 137.31 117.55 2.32 51
8 07/14/2019 18:50:22 81.31, -55.19 62.45 07/14/2019 18:49:59 81.32, -55.03 62.46 2.69 23
9 07/17/2019 13:34:04 -81.31,-156.25 117.13 07/17/2019 13:34:47 -81.32,-156.24 117.11 0.80 43




NCC Satellite Simultaneous Nadir Overpasses (SNOs) Prediction Service
